This is the latest recevied weather packets stored in our database for station/object W8RSN-13. If no packets are shown the sender has not sent any weather packets the latest 10 day(s).
| Time | Temp. | Humidity | Pressure | Rain* | Wind** | Luminosity | Snow |
|---|---|---|---|---|---|---|---|
| 1787896169 | 28.33° C | 55% | 1012.9 hPa | - | - | - | - |
| 1787895868 | 28.33° C | 54% | 1012.9 hPa | - | - | - | - |
| 1787895567 | 28.33° C | 53% | 1012.7 hPa | - | - | - | - |
| 1787895266 | 28.33° C | 52% | 1012.8 hPa | - | - | - | - |
| 1787894965 | 28.89° C | 53% | 1012.8 hPa | - | - | - | - |
| 1787894664 | 28.33° C | 53% | 1012.9 hPa | - | - | - | - |
| 1787894363 | 28.33° C | 51% | 1012.8 hPa | - | - | - | - |
| 1787894063 | 28.33° C | 54% | 1012.8 hPa | - | - | - | - |
| 1787893762 | 28.89° C | 54% | 1012.8 hPa | - | - | - | - |
| 1787893461 | 28.89° C | 56% | 1012.7 hPa | - | - | - | - |
| 1787893160 | 28.33° C | 56% | 1012.8 hPa | - | - | - | - |
| 1787892859 | 28.89° C | 56% | 1013 hPa | - | - | - | - |
| 1787892558 | 28.89° C | 56% | 1013 hPa | - | - | - | - |
| 1787892257 | 28.89° C | 55% | 1013 hPa | - | - | - | - |
| 1787891956 | 28.89° C | 56% | 1012.9 hPa | - | - | - | - |
| 1787891655 | 28.89° C | 56% | 1013 hPa | - | - | - | - |
| 1787891374 | 28.33° C | 56% | 1013.1 hPa | - | - | - | - |
| 1787891074 | 28.33° C | 59% | 1013.1 hPa | - | - | - | - |
| 1787890773 | 28.89° C | 59% | 1013.1 hPa | - | - | - | - |
| 1787890472 | 28.89° C | 58% | 1013.1 hPa | - | - | - | - |
| 1787890171 | 28.89° C | 58% | 1013.3 hPa | - | - | - | - |
| 1787889870 | 28.89° C | 58% | 1013 hPa | - | - | - | - |
| 1787889569 | 28.89° C | 58% | 1013 hPa | - | - | - | - |
| 1787889268 | 28.89° C | 58% | 1012.9 hPa | - | - | - | - |
| 1787888968 | 28.89° C | 58% | 1013.1 hPa | - | - | - | - |
* Rain since midnight (hover to see other rain measurements)
** Current wind speed in m/s (hover to see current wind gust speed)